TimeCDT,TemperatureF,Dew PointF,Humidity,Sea Level PressureIn,VisibilityMPH,Wind Direction,Wind SpeedMPH,Gust SpeedMPH,PrecipitationIn,Events,Conditions,WindDirDegrees,DateUTC
12:55 AM,37.9,24.1,57,30.17,10.0,SSE,5.8,-,N/A,,Clear,160,2013-10-27 05:55:00
1:55 AM,37.9,24.1,57,30.15,10.0,Calm,Calm,-,N/A,,Clear,0,2013-10-27 06:55:00
2:55 AM,35.1,24.1,64,30.13,10.0,Calm,Calm,-,N/A,,Clear,0,2013-10-27 07:55:00
3:55 AM,37.0,25.0,62,30.11,10.0,Variable,3.5,-,N/A,,Clear,0,2013-10-27 08:55:00
4:55 AM,37.0,25.0,62,30.09,10.0,SW,4.6,-,N/A,,Clear,220,2013-10-27 09:55:00
5:55 AM,39.0,26.1,60,30.09,10.0,SW,6.9,-,N/A,,Clear,220,2013-10-27 10:55:00
6:55 AM,37.0,25.0,62,30.07,10.0,SSW,9.2,-,N/A,,Clear,210,2013-10-27 11:55:00
7:55 AM,36.0,25.0,64,30.06,10.0,SSW,9.2,-,N/A,,Clear,210,2013-10-27 12:55:00
8:55 AM,42.1,27.0,55,30.04,10.0,SSW,10.4,-,N/A,,Clear,210,2013-10-27 13:55:00
9:55 AM,50.0,26.1,39,30.03,10.0,SW,15.0,24.2,N/A,,Clear,220,2013-10-27 14:55:00
10:55 AM,54.0,27.0,35,30.01,10.0,SW,13.8,24.2,N/A,,Clear,230,2013-10-27 15:55:00
11:55 AM,61.0,27.0,27,29.99,10.0,SW,20.7,27.6,N/A,,Clear,220,2013-10-27 16:55:00
12:55 PM,66.0,30.0,26,29.95,10.0,SSW,19.6,26.5,N/A,,Clear,210,2013-10-27 17:55:00
1:55 PM,71.1,30.9,23,29.91,10.0,SSW,19.6,25.3,N/A,,Clear,210,2013-10-27 18:55:00
2:55 PM,72.0,32.0,23,29.88,10.0,SSW,18.4,26.5,N/A,,Clear,200,2013-10-27 19:55:00
3:55 PM,73.0,33.1,23,29.86,10.0,SSW,18.4,25.3,N/A,,Clear,200,2013-10-27 20:55:00
4:55 PM,71.1,32.0,24,29.86,10.0,SSW,17.3,26.5,N/A,,Clear,200,2013-10-27 21:55:00
5:55 PM,68.0,32.0,26,29.84,10.0,SSW,15.0,-,N/A,,Clear,200,2013-10-27 22:55:00
6:55 PM,62.1,30.9,31,29.86,10.0,South,11.5,-,N/A,,Clear,180,2013-10-27 23:55:00
7:55 PM,60.1,32.0,35,29.87,10.0,South,16.1,-,N/A,,Clear,190,2013-10-28 00:55:00
8:55 PM,57.0,-9999,N/A,29.88,10.0,South,17.3,-,N/A,,Clear,190,2013-10-28 01:55:00
9:55 PM,55.9,-9999,N/A,29.88,10.0,South,19.6,-,N/A,,Clear,190,2013-10-28 02:55:00
10:55 PM,54.0,-9999,N/A,29.89,10.0,South,19.6,-,N/A,,Clear,190,2013-10-28 03:55:00
11:55 PM,53.1,-9999,N/A,29.89,10.0,South,18.4,-,N/A,,Clear,180,2013-10-28 04:55:00